Regional Weather Roundup
Issued by NWS San Diego, CA

Home | Current Version | Previous Version | Text Only | Print | Product List | Glossary On
Versions: 1 2 3 4 5 6 7 8 9 10 11 12 13 14 15 16 17 18 19 20 21 22 23 24 25 26 27 28 29 30 31 32 33 34 35 36 37 38 39 40 41 42 43 44 45 46 47 48 49 50
000
ASUS46 KSGX 200610
RWRSGX

SAN DIEGO HOURLY WEATHER ROUNDUP
NATIONAL WEATHER SERVICE SAN DIEGO CA
1100 PM PDT FRI SEP 19 2014

NOTE: "FAIR" INDICATES FEW OR NO CLOUDS BELOW 12,000 FEET WITH NO
SIGNIFICANT WEATHER AND/OR OBSTRUCTIONS TO VISIBILITY.

CAZ042-043-060-061-PZZ750-775-200700-

GREATER SAN DIEGO AREA

CITY           SKY/WX    TMP DP  RH WIND       PRES   REMARKS
LINDBERGH FLD  MOCLDY    72  61  68 W7        29.91R
POINT LOMA       N/A     69  63  80 NW9         N/A
NATIONAL CITY    N/A     71  65  81 CALM      29.91R
CHULA VISTA      N/A     70  65  83 CALM      29.83R
IMPERIAL BEACH CLOUDY    71  64  78 NW8       29.91R
BROWN FIELD    CLOUDY    67  62  84 W5        29.91R
MIRAMAR MCAS   MOCLDY    68  61  78 SW3       29.91R
MONTGOMERY FLD CLOUDY    69  62  78 W6        29.91R

$$

NORTH SAN DIEGO COUNTY

CITY           SKY/WX    TMP DP  RH WIND       PRES   REMARKS
CAMP PENDLETON MOCLDY    66  58  75 CALM      29.89R
OCEANSIDE AP   PTCLDY    66  59  78 CALM      29.89R
OCEANSIDE HBR    N/A     69  63  82 N2        29.92R
VISTA            N/A     66  61  84 CALM      29.88R
CARLSBAD       CLOUDY    70  62  76 SE3       29.89R
DEL MAR          N/A     69  65  86 CALM      29.92R
FALLBROOK        N/A     65  65  99 CALM      29.90R
ESCONDIDO        N/A     67  62  83 SW1       29.91R
SAN MARCOS       N/A     67  62  84 CALM      29.87R
POWAY            N/A     66  61  84 CALM      29.91R

$$

EAST SAN DIEGO COUNTY

CITY           SKY/WX    TMP DP  RH WIND       PRES   REMARKS
RAMONA           N/A     61  58  90 W5        29.93R
SANTEE LAKES     N/A     67  62  85 CALM      29.91R
LA MESA          N/A     68  64  85 CALM      29.84R
JAMUL            N/A     64  60  86 CALM      29.89R
MT. LAGUNA OBS   N/A     60  41  50 CALM      29.70R
CAMPO            N/A     61  55  81 NE3       29.93R

$$

ORANGE COUNTY AND THE LOS ANGELES BASIN

CITY           SKY/WX    TMP DP  RH WIND       PRES   REMARKS
JOHN WAYNE AP  CLEAR     73  62  68 CALM      29.88S
LAGUNA BEACH     N/A    N/A  18   0 CALM      29.84S
LAKE FOREST FR   N/A     65  58  79 CALM      29.80R
SANTA ANA        N/A     69  64  82 CALM      29.84R
HUNTINGTON BCH   N/A     68  64  88 CALM      29.91R
LOS ALAMITOS   FAIR      68  62  81 W2        29.89R
FULLERTON      CLEAR     71  60  68 CALM      29.88R
LONG BEACH     CLEAR     69  63  81 NW5       29.88S
L.A. AP        PTCLDY    68  63  84 W6        29.89R
L.A. DOWNTOWN  CLEAR     68  62  81 CALM      29.88R

$$

THE INLAND EMPIRE

CITY           SKY/WX    TMP DP  RH WIND       PRES   REMARKS
CORONA         CLEAR     68  61  78 CALM      29.90R
CHINO          CLEAR     68  60  75 W6        29.91R
ONTARIO        PTCLDY    69  60  73 W6        29.90R
RIVERSIDE AP   CLEAR     69  60  73 W3        29.90R
RIV CYN CREST    N/A     69  67  92 CALM      29.87S
MORENO VALLEY    N/A     67  62  85 CALM      29.11R
MARCH ARB      CLEAR     67  59  76 W1        29.92R
HORSETHIEF CYN   N/A     67  56  68 SW2       29.90R
PERRIS           N/A     69  60  75 CALM      29.88R
MENIFEE          N/A     68  62  82 CALM      29.95S
HEMET EAST       N/A     67  57  70 CALM      29.87S
FRENCH VALLEY  FAIR      64  59  82 CALM      29.92R
TEMECULA         N/A     66  62  86 CALM      29.88R

$$

SAN BERNARDINO AND RIVERSIDE COUNTY MOUNTAINS

CITY           SKY/WX    TMP DP  RH WIND       PRES   REMARKS
BIG BEAR AP    CLEAR     46  36  66 CALM      30.18R
PINE COVE        N/A     59  46  62 CALM      29.78R

$$

SOUTHERN DESERT INCLUDING THE COACHELLA VALLEY

CITY           SKY/WX    TMP DP  RH WIND       PRES   REMARKS
PALM SPRINGS   CLEAR     85  58  39 NW10      29.80R
THOUSAND PALMS   N/A     83  59  43 NW9       29.74R
PALM DESERT      N/A     84  61  46 N5        27.85F
THERMAL        CLEAR     83  59  44 NW7       29.73S
BLYTHE         CLEAR     89  47  23 W8        29.76S
IMPERIAL AP    CLEAR     86  58  38 W3        29.73R
EL CENTRO NAS  CLEAR     85  59  41 SW9       29.73S
YUMA AZ        CLEAR     90  66  45 CALM      29.76R

$$

UPPER DESERT

CITY           SKY/WX    TMP DP  RH WIND       PRES   REMARKS
VICTORVILLE AP CLEAR     70  54  56 SW5       29.95S
HESPERIA         N/A     69  51  52 CALM      29.94R
APPLE VALLEY     N/A     73  50  43 W1        30.02R
PALMDALE       CLEAR     69  54  58 S3        29.93R
LANCASTER      CLEAR     69  55  60 W12       29.92S
EDWARDS AFB    CLEAR     72  54  53 SW10      29.89R
DAGGETT        CLEAR     79  43  27 W9        29.87R
29 PALMS N     CLEAR     79  53  40 CALM      29.94R
NEEDLES        CLEAR     87  45  23 N7        29.79R

$$

REGIONAL REPORTS

CITY           SKY/WX    TMP DP  RH WIND       PRES   REMARKS
SANTA BARBARA  CLEAR     67  62  84 SE5       29.86S
SANDBERG       CLEAR     64  52  64 NW10      30.05R
MT. WILSON       N/A     55  50  82 MISG        N/A
LAS VEGAS NV   PTCLDY    86  32  14 S8        29.84R
PHOENIX AZ     PTCLDY    93  54  26 N3        29.79R
TIJUANA        CLOUDY    68  59  73 CALM      29.92R

$$

OFFSHORE ISLANDS

CITY           SKY/WX    TMP DP  RH WIND       PRES   REMARKS
CATALINA ARPT  CLOUDY    62  59  90 SW6       29.93R
SAN NICOLAS IS CLOUDY   N/A N/A N/A NW14      29.90S

$$

MARINE AND OFFSHORE BUOY REPORTS

STATION/POSITION SKY/WX   TEMP    WIND        PRES    SWELL
                          AIR SEA DIR/SP/G            HT/PER/DIR
                          (F)     (DEG/KT/KT) (MB)    (FT/S/D)
TANNER BANKS               68 71  300/ 12/ 14 1012.9R   5/300/11
S CLEMENTE BASIN           69 74  290/ 12/ 14 1012.5R   5/200/14
SAN NICOLAS IS.               70                N/A     3/290/11
SO. S. ROSA ISLA           67 69  310/ 14/ 17 1011.6R   5/13
W. S. BARBARA CH           63 63  320/ 12/ 12 1011.4F   3/210/14
M. S. BARBARA CH                  260/ 12       N/A
S. MONICA BASIN            69 72  320/ 10/ 14 1011.7R   3/180/15
S PEDRO CHANNEL               73                N/A     2/180/14
DANA POINT                    71                N/A     3/190/14
CMP PENDLETON NS              71                N/A     2/220/14
OCEANSIDE OFFSHR              73                N/A     2/210/15
TORREY PINES OTR              72                N/A     3/210/14
LA JOLLA 1                 70 73  300/  3/  5 1012.4R
MISSION BAY BUOY              72                N/A     2/230/15
SAN DIEGO BAY                 76              1012.9R

$$



USA.gov is the U.S. government's official web portal to all federal, state and local government web resources and services.